| time (UTC) | temp F | wind direction | speed MPH | gust MPH | rain 1hr in | rain 24hr in | rain mn in | humidity % | barometer mb |
| 20260508142803 | 72 | 227 | 10.0 | 15.0 | 0.00 | 0.00 | 0.00 | 40 | 1009.9 |
| 20260508142306 | 72 | 200 | 7.0 | 12.0 | 0.00 | 0.00 | 0.00 | 37 | 1009.9 |
| 20260508141304 | 72 | 245 | 9.0 | 10.0 | 0.00 | 0.00 | 0.00 | 38 | 1010.1 |
| 20260508140803 | 71 | 241 | 8.0 | 15.0 | 0.00 | 0.00 | 0.00 | 39 | 1010.1 |
| 20260508140304 | 72 | 203 | 8.0 | 13.0 | 0.00 | 0.00 | 0.00 | 39 | 1010.1 |
| 20260508135804 | 70 | 233 | 3.0 | 7.0 | 0.00 | 0.00 | 0.00 | 40 | 1010.2 |
| 20260508135306 | 71 | 209 | 5.0 | 8.0 | 0.00 | 0.00 | 0.00 | 40 | 1010.3 |
| 20260508134304 | 70 | 217 | 8.0 | 13.0 | 0.00 | 0.00 | 0.00 | 40 | 1010.4 |
| 20260508133804 | 70 | 241 | 6.0 | 9.0 | 0.00 | 0.00 | 0.00 | 41 | 1010.5 |
| 20260508133304 | 70 | 229 | 7.0 | 12.0 | 0.00 | 0.00 | 0.00 | 41 | 1010.4 |
| 20260508132804 | 70 | 251 | 8.0 | 12.0 | 0.00 | 0.00 | 0.00 | 41 | 1010.5 |
| 20260508132306 | 69 | 244 | 9.0 | 13.0 | 0.00 | 0.00 | 0.00 | 42 | 1010.4 |
| 20260508131803 | 71 | 248 | 9.0 | 12.0 | 0.00 | 0.00 | 0.00 | 40 | 1010.6 |
| 20260508131304 | 69 | 308 | 6.0 | 10.0 | 0.00 | 0.00 | 0.00 | 41 | 1010.8 |
| 20260508130803 | 69 | 230 | 5.0 | 9.0 | 0.00 | 0.00 | 0.00 | 42 | 1010.8 |
| 20260508130304 | 69 | 222 | 2.0 | 12.0 | 0.00 | 0.00 | 0.00 | 42 | 1010.9 |
| 20260508125306 | 69 | 239 | 6.0 | 9.0 | 0.00 | 0.00 | 0.00 | 42 | 1011.0 |
| 20260508124304 | 69 | 243 | 8.0 | 13.0 | 0.00 | 0.00 | 0.00 | 43 | 1011.2 |
| 20260508123804 | 69 | 274 | 6.0 | 13.0 | 0.00 | 0.00 | 0.00 | 43 | 1011.1 |
| 20260508122306 | 69 | 162 | 3.0 | 12.0 | 0.00 | 0.00 | 0.00 | 43 | 1011.3 |
| 20260508121804 | 69 | 217 | 10.0 | 13.0 | 0.00 | 0.00 | 0.00 | 43 | 1011.3 |
| 20260508121304 | 68 | 219 | 9.0 | 14.0 | 0.00 | 0.00 | 0.00 | 44 | 1011.4 |
| 20260508120803 | 68 | 283 | 7.0 | 12.0 | 0.00 | 0.00 | 0.00 | 45 | 1011.4 |
| 20260508120304 | 69 | 222 | 10.0 | 16.0 | 0.00 | 0.00 | 0.00 | 44 | 1011.5 |
| 20260508115805 | 67 | 182 | 2.0 | 10.0 | 0.00 | 0.00 | 0.00 | 46 | 1011.6 |
| 20260508115306 | 68 | 200 | 10.0 | 14.0 | 0.00 | 0.00 | 0.00 | 45 | 1011.7 |
| 20260508114804 | 67 | 180 | 6.0 | 8.0 | 0.00 | 0.00 | 0.00 | 46 | 1011.6 |
| 20260508114304 | 67 | 212 | 6.0 | 10.0 | 0.00 | 0.00 | 0.00 | 46 | 1011.7 |
| 20260508113804 | 68 | 253 | 9.0 | 14.0 | 0.00 | 0.00 | 0.00 | 46 | 1011.5 |
| 20260508113304 | 67 | 205 | 10.0 | 13.0 | 0.00 | 0.00 | 0.00 | 47 | 1011.6 |
| 20260508112805 | 67 | 254 | 5.0 | 13.0 | 0.00 | 0.00 | 0.00 | 46 | 1011.7 |
| 20260508112307 | 68 | 149 | 6.0 | 10.0 | 0.00 | 0.00 | 0.00 | 45 | 1011.7 |
| 20260508111804 | 67 | 186 | 5.0 | 9.0 | 0.00 | 0.00 | 0.00 | 45 | 1011.6 |
| 20260508111304 | 67 | 239 | 7.0 | 14.0 | 0.00 | 0.00 | 0.00 | 46 | 1011.6 |
| 20260508110805 | 66 | 270 | 9.0 | 10.0 | 0.00 | 0.00 | 0.00 | 46 | 1011.6 |
| 20260508105805 | 68 | 286 | 7.0 | 12.0 | 0.00 | 0.00 | 0.00 | 44 | 1011.8 |
| 20260508105306 | 68 | 210 | 10.0 | 14.0 | 0.00 | 0.00 | 0.00 | 45 | 1011.7 |
| 20260508104804 | 67 | 212 | 9.0 | 15.0 | 0.00 | 0.00 | 0.00 | 46 | 1011.6 |
| 20260508104305 | 66 | 192 | 7.0 | 13.0 | 0.00 | 0.00 | 0.00 | 46 | 1011.8 |
| 20260508103804 | 68 | 271 | 7.0 | 10.0 | 0.00 | 0.00 | 0.00 | 46 | 1011.8 |
| 20260508103304 | 65 | 267 | 3.0 | 10.0 | 0.00 | 0.00 | 0.00 | 46 | 1012.0 |
| 20260508102804 | 66 | 259 | 5.0 | 10.0 | 0.00 | 0.00 | 0.00 | 47 | 1011.8 |
| 20260508102306 | 67 | 210 | 8.0 | 13.0 | 0.00 | 0.00 | 0.00 | 46 | 1011.9 |
| 20260508101304 | 65 | 268 | 5.0 | 13.0 | 0.00 | 0.00 | 0.00 | 48 | 1012.0 |
| 20260508100805 | 66 | 263 | 7.0 | 13.0 | 0.00 | 0.00 | 0.00 | 47 | 1012.1 |
| 20260508100304 | 67 | 210 | 8.0 | 13.0 | 0.00 | 0.00 | 0.00 | 47 | 1011.9 |
| 20260508095804 | 65 | 194 | 3.0 | 7.0 | 0.00 | 0.00 | 0.00 | 50 | 1012.1 |
| 20260508095306 | 64 | 278 | 5.0 | 14.0 | 0.00 | 0.00 | 0.00 | 50 | 1012.2 |
| 20260508094805 | 65 | 220 | 9.0 | 14.0 | 0.00 | 0.00 | 0.00 | 49 | 1012.2 |
| 20260508094304 | 65 | 187 | 9.0 | 13.0 | 0.00 | 0.00 | 0.00 | 51 | 1012.1 |
| 20260508093804 | 64 | 269 | 6.0 | 10.0 | 0.00 | 0.00 | 0.00 | 49 | 1012.3 |
| 20260508093304 | 64 | 245 | 10.0 | 15.0 | 0.00 | 0.00 | 0.00 | 50 | 1012.3 |
| 20260508092312 | 65 | 212 | 10.0 | 13.0 | 0.00 | 0.00 | 0.00 | 52 | 1012.6 |
| 20260508091304 | 64 | 204 | 12.0 | 15.0 | 0.00 | 0.00 | 0.00 | 57 | 1012.4 |
| 20260508090804 | 63 | 199 | 6.0 | 13.0 | 0.00 | 0.00 | 0.00 | 57 | 1012.4 |
| 20260508090305 | 63 | 200 | 9.0 | 15.0 | 0.00 | 0.00 | 0.00 | 57 | 1012.5 |
| 20260508085804 | 64 | 198 | 10.0 | 13.0 | 0.00 | 0.00 | 0.00 | 57 | 1012.5 |
| 20260508085306 | 64 | 198 | 10.0 | 14.0 | 0.00 | 0.00 | 0.00 | 58 | 1012.3 |
| 20260508084804 | 63 | 199 | 7.0 | 14.0 | 0.00 | 0.00 | 0.00 | 60 | 1012.3 |
| 20260508083804 | 62 | 229 | 7.0 | 15.0 | 0.00 | 0.00 | 0.00 | 64 | 1012.4 |
| 20260508083304 | 62 | 237 | 13.0 | 16.0 | 0.00 | 0.00 | 0.00 | 63 | 1012.4 |
| 20260508082805 | 62 | 222 | 7.0 | 14.0 | 0.00 | 0.00 | 0.00 | 63 | 1012.3 |
| 20260508082306 | 62 | 247 | 10.0 | 14.0 | 0.00 | 0.00 | 0.00 | 63 | 1012.4 |
| 20260508081804 | 63 | 248 | 7.0 | 13.0 | 0.00 | 0.00 | 0.00 | 64 | 1012.5 |
| 20260508081304 | 62 | 241 | 9.0 | 14.0 | 0.00 | 0.00 | 0.00 | 64 | 1012.4 |
| 20260508080804 | 62 | 212 | 9.0 | 12.0 | 0.00 | 0.00 | 0.00 | 66 | 1012.3 |
| 20260508080304 | 61 | 224 | 7.0 | 10.0 | 0.00 | 0.00 | 0.00 | 67 | 1012.3 |
| 20260508074804 | 60 | 226 | 5.0 | 8.0 | 0.00 | 0.00 | 0.00 | 71 | 1012.2 |
| 20260508074304 | 59 | 191 | 4.0 | 6.0 | 0.00 | 0.00 | 0.00 | 71 | 1012.0 |
| 20260508073804 | 59 | 221 | 5.0 | 7.0 | 0.00 | 0.00 | 0.00 | 72 | 1012.0 |
| 20260508073304 | 59 | 230 | 4.0 | 6.0 | 0.00 | 0.00 | 0.00 | 72 | 1011.9 |
| 20260508072804 | 59 | 216 | 4.0 | 6.0 | 0.00 | 0.00 | 0.00 | 72 | 1011.8 |
| 20260508072307 | 59 | 178 | 2.0 | 5.0 | 0.00 | 0.00 | 0.00 | 72 | 1011.9 |
| 20260508071304 | 58 | 209 | 2.0 | 5.0 | 0.00 | 0.00 | 0.00 | 73 | 1011.8 |
| 20260508070803 | 58 | 167 | 3.0 | 6.0 | 0.00 | 0.00 | 0.00 | 73 | 1011.8 |
| 20260508070304 | 58 | 119 | 3.0 | 7.0 | 0.00 | 0.00 | 0.00 | 74 | 1011.7 |
| 20260508065804 | 58 | 184 | 5.0 | 6.0 | 0.00 | 0.00 | 0.00 | 73 | 1011.8 |
| 20260508065306 | 58 | 182 | 3.0 | 6.0 | 0.00 | 0.00 | 0.00 | 74 | 1011.7 |
| 20260508064804 | 58 | 267 | 2.0 | 5.0 | 0.00 | 0.00 | 0.00 | 74 | 1011.7 |
| 20260508064305 | 58 | 179 | 2.0 | 5.0 | 0.00 | 0.00 | 0.00 | 74 | 1011.6 |
| 20260508063804 | 58 | 214 | 4.0 | 6.0 | 0.00 | 0.00 | 0.00 | 74 | 1011.6 |
| 20260508062804 | 58 | 178 | 5.0 | 9.0 | 0.00 | 0.00 | 0.00 | 75 | 1011.7 |
| 20260508062306 | 57 | 189 | 4.0 | 7.0 | 0.00 | 0.00 | 0.00 | 76 | 1011.7 |
| 20260508061804 | 57 | 216 | 5.0 | 6.0 | 0.00 | 0.00 | 0.00 | 76 | 1011.7 |
| 20260508061303 | 57 | 247 | 3.0 | 5.0 | 0.00 | 0.00 | 0.00 | 76 | 1011.6 |
| 20260508060804 | 57 | 234 | 3.0 | 5.0 | 0.00 | 0.00 | 0.00 | 76 | 1011.4 |
| 20260508055306 | 56 | 258 | 2.0 | 2.0 | 0.00 | 0.00 | 0.00 | 78 | 1011.4 |
| 20260508054804 | 56 | 175 | 2.0 | 3.0 | 0.00 | 0.00 | 0.00 | 79 | 1011.4 |
| 20260508054304 | 56 | 202 | 3.0 | 3.0 | 0.00 | 0.00 | 0.00 | 79 | 1011.4 |
| 20260508053803 | 56 | 233 | 2.0 | 5.0 | 0.00 | 0.00 | 0.00 | 79 | 1011.4 |
| 20260508053304 | 56 | 231 | 3.0 | 6.0 | 0.00 | 0.00 | 0.00 | 78 | 1011.5 |
| 20260508052306 | 56 | 192 | 3.0 | 7.0 | 0.00 | 0.00 | 0.00 | 78 | 1011.0 |
| 20260508050804 | 56 | 221 | 1.0 | 3.0 | 0.00 | 0.00 | 0.00 | 78 | 1010.9 |
| 20260508050305 | 56 | 191 | 2.0 | 6.0 | 0.00 | 0.00 | 0.00 | 78 | 1010.7 |
| 20260508045804 | 56 | 215 | 4.0 | 6.0 | 0.00 | 0.00 | 0.00 | 78 | 1010.7 |
| 20260508045307 | 56 | 217 | 3.0 | 5.0 | 0.00 | 0.00 | 0.00 | 78 | 1010.7 |
| 20260508044804 | 56 | 243 | 3.0 | 6.0 | 0.00 | 0.00 | 0.00 | 77 | 1010.7 |
| 20260508044304 | 57 | 211 | 6.0 | 8.0 | 0.00 | 0.00 | 0.00 | 76 | 1010.8 |
| 20260508043804 | 57 | 207 | 5.0 | 7.0 | 0.00 | 0.00 | 0.00 | 76 | 1010.5 |
| 20260508043304 | 57 | 202 | 3.0 | 6.0 | 0.00 | 0.00 | 0.00 | 75 | 1010.4 |
| 20260508042805 | 57 | 205 | 3.0 | 5.0 | 0.00 | 0.00 | 0.00 | 75 | 1010.4 |
| 20260508042307 | 57 | 192 | 3.0 | 7.0 | 0.00 | 0.00 | 0.00 | 76 | 1010.2 |
| 20260508041804 | 57 | 175 | 3.0 | 3.0 | 0.00 | 0.00 | 0.00 | 76 | 1010.1 |
| 20260508040804 | 57 | 210 | 3.0 | 5.0 | 0.00 | 0.00 | 0.00 | 76 | 1010.4 |
| 20260508040304 | 57 | 174 | 3.0 | 6.0 | 0.00 | 0.00 | 0.00 | 76 | 1010.5 |
| 20260508035306 | 57 | 191 | 4.0 | 6.0 | 0.00 | 0.00 | 0.00 | 77 | 1010.4 |
| 20260508034804 | 57 | 198 | 5.0 | 6.0 | 0.00 | 0.00 | 0.00 | 76 | 1010.5 |
| 20260508034304 | 57 | 199 | 5.0 | 7.0 | 0.00 | 0.00 | 0.00 | 76 | 1010.4 |
| 20260508033804 | 57 | 173 | 4.0 | 7.0 | 0.00 | 0.00 | 0.00 | 76 | 1010.4 |
| 20260508032306 | 57 | 165 | 3.0 | 6.0 | 0.00 | 0.00 | 0.00 | 75 | 1010.4 |
| 20260508031304 | 57 | 147 | 2.0 | 5.0 | 0.00 | 0.00 | 0.00 | 75 | 1010.4 |
| 20260508030804 | 57 | 154 | 3.0 | 7.0 | 0.00 | 0.00 | 0.00 | 75 | 1010.5 |
| 20260508030304 | 57 | 186 | 3.0 | 5.0 | 0.00 | 0.00 | 0.00 | 75 | 1010.7 |
| 20260508025306 | 57 | 179 | 3.0 | 6.0 | 0.00 | 0.00 | 0.00 | 74 | 1010.8 |
| 20260508024804 | 57 | 180 | 4.0 | 6.0 | 0.00 | 0.00 | 0.00 | 75 | 1010.7 |
| 20260508024304 | 57 | 182 | 3.0 | 6.0 | 0.00 | 0.00 | 0.00 | 75 | 1010.8 |
| 20260508023804 | 58 | 184 | 4.0 | 5.0 | 0.00 | 0.00 | 0.00 | 74 | 1010.7 |
| 20260508023304 | 58 | 181 | 3.0 | 8.0 | 0.00 | 0.00 | 0.00 | 74 | 1010.7 |
| 20260508022804 | 58 | 185 | 5.0 | 8.0 | 0.00 | 0.00 | 0.00 | 74 | 1010.9 |
| 20260508022307 | 58 | 182 | 4.0 | 7.0 | 0.00 | 0.00 | 0.00 | 74 | 1010.7 |
| 20260508021804 | 58 | 188 | 4.0 | 6.0 | 0.00 | 0.00 | 0.00 | 74 | 1010.8 |
| 20260508020804 | 58 | 185 | 3.0 | 3.0 | 0.00 | 0.00 | 0.00 | 74 | 1010.7 |
| 20260508020304 | 58 | 167 | 3.0 | 6.0 | 0.00 | 0.00 | 0.00 | 74 | 1010.9 |
| 20260508015804 | 58 | 184 | 3.0 | 6.0 | 0.00 | 0.00 | 0.00 | 74 | 1010.7 |
| 20260508015306 | 58 | 169 | 1.0 | 5.0 | 0.00 | 0.00 | 0.00 | 74 | 1010.8 |
| 20260508014804 | 58 | 213 | 4.0 | 5.0 | 0.00 | 0.00 | 0.00 | 74 | 1010.8 |
| 20260508014303 | 58 | 215 | 3.0 | 6.0 | 0.00 | 0.00 | 0.00 | 75 | 1010.8 |
| 20260508013804 | 58 | 218 | 4.0 | 6.0 | 0.00 | 0.00 | 0.00 | 75 | 1010.9 |
| 20260508013304 | 58 | 207 | 4.0 | 5.0 | 0.00 | 0.00 | 0.00 | 74 | 1011.1 |
| 20260508012804 | 58 | 202 | 3.0 | 6.0 | 0.00 | 0.00 | 0.00 | 74 | 1011.1 |
| 20260508012307 | 58 | 217 | 4.0 | 6.0 | 0.00 | 0.00 | 0.00 | 74 | 1011.2 |
| 20260508011804 | 58 | 189 | 3.0 | 6.0 | 0.00 | 0.00 | 0.00 | 74 | 1010.9 |
| 20260508011304 | 58 | 206 | 3.0 | 6.0 | 0.00 | 0.00 | 0.00 | 74 | 1011.3 |
| 20260508010804 | 58 | 193 | 4.0 | 5.0 | 0.00 | 0.00 | 0.00 | 74 | 1011.3 |
| 20260508005804 | 58 | 200 | 3.0 | 6.0 | 0.00 | 0.00 | 0.00 | 75 | 1011.1 |
| 20260508005306 | 58 | 216 | 4.0 | 6.0 | 0.00 | 0.00 | 0.00 | 75 | 1011.0 |
| 20260508004804 | 58 | 210 | 3.0 | 6.0 | 0.00 | 0.00 | 0.00 | 76 | 1011.3 |
| 20260508004303 | 58 | 205 | 3.0 | 6.0 | 0.00 | 0.00 | 0.00 | 76 | 1011.4 |
| 20260508003304 | 58 | 247 | 3.0 | 6.0 | 0.00 | 0.00 | 0.00 | 76 | 1011.3 |
| 20260508002804 | 58 | 234 | 3.0 | 5.0 | 0.00 | 0.00 | 0.00 | 75 | 1011.2 |
| 20260508002306 | 59 | 202 | 4.0 | 6.0 | 0.00 | 0.00 | 0.00 | 74 | 1011.2 |
| 20260508001804 | 59 | 192 | 5.0 | 7.0 | 0.00 | 0.00 | 0.00 | 74 | 1011.1 |
| 20260508000804 | 59 | 185 | 5.0 | 6.0 | 0.00 | 0.00 | 0.00 | 74 | 1011.2 |
| 20260508000305 | 59 | 196 | 4.0 | 7.0 | 0.00 | 0.00 | 0.00 | 73 | 1011.0 |
| 20260507235804 | 59 | 210 | 4.0 | 5.0 | 0.00 | 0.00 | 0.00 | 73 | 1011.2 |
| 20260507235306 | 59 | 197 | 4.0 | 6.0 | 0.00 | 0.00 | 0.00 | 73 | 1011.4 |
| 20260507234804 | 59 | 205 | 6.0 | 7.0 | 0.00 | 0.00 | 0.00 | 72 | 1011.6 |
| 20260507234304 | 59 | 188 | 5.0 | 7.0 | 0.00 | 0.00 | 0.00 | 72 | 1011.4 |
| 20260507233804 | 59 | 210 | 6.0 | 7.0 | 0.00 | 0.00 | 0.00 | 71 | 1011.4 |
| 20260507233304 | 60 | 197 | 5.0 | 6.0 | 0.00 | 0.00 | 0.00 | 71 | 1011.3 |
| 20260507232804 | 59 | 184 | 3.0 | 6.0 | 0.00 | 0.00 | 0.00 | 71 | 1011.1 |
| 20260507232306 | 59 | 183 | 4.0 | 6.0 | 0.00 | 0.00 | 0.00 | 71 | 1011.3 |
| 20260507231804 | 59 | 207 | 3.0 | 5.0 | 0.00 | 0.00 | 0.00 | 71 | 1011.3 |
| 20260507230804 | 59 | 182 | 3.0 | 6.0 | 0.00 | 0.00 | 0.00 | 72 | 1011.3 |
| 20260507230304 | 59 | 199 | 5.0 | 7.0 | 0.00 | 0.00 | 0.00 | 72 | 1011.5 |
| 20260507224804 | 59 | 197 | 3.0 | 5.0 | 0.00 | 0.00 | 0.00 | 72 | 1011.5 |
| 20260507224304 | 59 | 199 | 5.0 | 7.0 | 0.00 | 0.00 | 0.00 | 72 | 1011.8 |
| 20260507223304 | 59 | 202 | 5.0 | 6.0 | 0.00 | 0.00 | 0.00 | 72 | 1011.9 |
| 20260507222306 | 59 | 201 | 5.0 | 7.0 | 0.00 | 0.00 | 0.00 | 71 | 1012.0 |
| 20260507221804 | 59 | 199 | 4.0 | 6.0 | 0.00 | 0.00 | 0.00 | 70 | 1011.8 |
| 20260507221304 | 59 | 191 | 4.0 | 6.0 | 0.00 | 0.00 | 0.00 | 70 | 1012.0 |
| 20260507220804 | 59 | 195 | 4.0 | 6.0 | 0.00 | 0.00 | 0.00 | 70 | 1012.0 |
| 20260507220304 | 59 | 191 | 5.0 | 6.0 | 0.00 | 0.00 | 0.00 | 70 | 1011.9 |
| 20260507215804 | 59 | 183 | 5.0 | 6.0 | 0.00 | 0.00 | 0.00 | 70 | 1011.8 |
| 20260507215306 | 59 | 195 | 5.0 | 7.0 | 0.00 | 0.00 | 0.00 | 69 | 1011.8 |
| 20260507214804 | 59 | 192 | 5.0 | 5.0 | 0.00 | 0.00 | 0.00 | 68 | 1012.0 |
| 20260507213804 | 60 | 234 | 2.0 | 6.0 | 0.00 | 0.00 | 0.00 | 67 | 1011.6 |
| 20260507213304 | 60 | 238 | 3.0 | 6.0 | 0.00 | 0.00 | 0.00 | 66 | 1011.9 |
| 20260507212804 | 60 | 239 | 3.0 | 6.0 | 0.00 | 0.00 | 0.00 | 65 | 1011.9 |
| 20260507211804 | 60 | 241 | 4.0 | 5.0 | 0.00 | 0.00 | 0.00 | 64 | 1011.8 |
| 20260507210804 | 60 | 255 | 4.0 | 6.0 | 0.00 | 0.00 | 0.00 | 63 | 1011.8 |
| 20260507210304 | 60 | 242 | 5.0 | 6.0 | 0.00 | 0.00 | 0.00 | 63 | 1011.5 |
| 20260507204304 | 62 | 266 | 5.0 | 7.0 | 0.00 | 0.00 | 0.00 | 61 | 1011.3 |
| 20260507203804 | 62 | 264 | 5.0 | 8.0 | 0.00 | 0.00 | 0.00 | 60 | 1011.2 |
| 20260507203304 | 62 | 281 | 6.0 | 9.0 | 0.00 | 0.00 | 0.00 | 60 | 1011.1 |
| 20260507202804 | 62 | 273 | 5.0 | 7.0 | 0.00 | 0.00 | 0.00 | 60 | 1011.1 |
| 20260507202306 | 62 | 255 | 6.0 | 9.0 | 0.00 | 0.00 | 0.00 | 60 | 1011.2 |
| 20260507201803 | 62 | 266 | 6.0 | 9.0 | 0.00 | 0.00 | 0.00 | 59 | 1011.2 |
| 20260507201304 | 62 | 277 | 8.0 | 12.0 | 0.00 | 0.00 | 0.00 | 59 | 1011.2 |
| 20260507200805 | 62 | 272 | 8.0 | 12.0 | 0.00 | 0.00 | 0.00 | 59 | 1011.4 |
| 20260507200303 | 62 | 259 | 7.0 | 10.0 | 0.00 | 0.00 | 0.00 | 59 | 1011.2 |
| 20260507195804 | 62 | 255 | 7.0 | 10.0 | 0.00 | 0.00 | 0.00 | 59 | 1011.2 |
| 20260507195306 | 62 | 262 | 7.0 | 9.0 | 0.00 | 0.00 | 0.00 | 59 | 1011.2 |
| 20260507194804 | 62 | 252 | 5.0 | 8.0 | 0.00 | 0.00 | 0.00 | 59 | 1011.1 |
| 20260507194303 | 62 | 253 | 5.0 | 8.0 | 0.00 | 0.00 | 0.00 | 59 | 1011.2 |
| 20260507193804 | 63 | 234 | 6.0 | 10.0 | 0.00 | 0.00 | 0.00 | 59 | 1011.0 |
| 20260507193304 | 63 | 244 | 7.0 | 12.0 | 0.00 | 0.00 | 0.00 | 59 | 1011.0 |
| 20260507192803 | 63 | 259 | 7.0 | 12.0 | 0.00 | 0.00 | 0.00 | 59 | 1010.7 |
| 20260507191304 | 63 | 247 | 7.0 | 14.0 | 0.00 | 0.00 | 0.00 | 58 | 1010.8 |
| 20260507190803 | 64 | 241 | 8.0 | 15.0 | 0.00 | 0.00 | 0.00 | 57 | 1010.7 |
| 20260507190304 | 64 | 244 | 12.0 | 16.0 | 0.00 | 0.00 | 0.00 | 56 | 1010.7 |
| 20260507185804 | 64 | 248 | 10.0 | 14.0 | 0.00 | 0.00 | 0.00 | 55 | 1010.8 |
| 20260507184804 | 65 | 240 | 10.0 | 17.0 | 0.00 | 0.00 | 0.00 | 55 | 1010.6 |
| 20260507184304 | 65 | 236 | 9.0 | 14.0 | 0.00 | 0.00 | 0.00 | 53 | 1010.3 |
| 20260507183304 | 66 | 244 | 13.0 | 17.0 | 0.00 | 0.00 | 0.00 | 52 | 1010.4 |
| 20260507182804 | 66 | 241 | 12.0 | 20.0 | 0.00 | 0.00 | 0.00 | 52 | 1010.3 |
| 20260507182306 | 66 | 230 | 9.0 | 18.0 | 0.00 | 0.00 | 0.00 | 52 | 1010.1 |
| 20260507181803 | 66 | 241 | 10.0 | 16.0 | 0.00 | 0.00 | 0.00 | 51 | 1010.1 |
| 20260507181304 | 66 | 237 | 12.0 | 17.0 | 0.00 | 0.00 | 0.00 | 51 | 1010.0 |
| 20260507180804 | 67 | 234 | 13.0 | 18.0 | 0.00 | 0.00 | 0.00 | 51 | 1009.8 |
| 20260507175804 | 68 | 240 | 9.0 | 17.0 | 0.00 | 0.00 | 0.00 | 50 | 1010.0 |
| 20260507175307 | 68 | 239 | 11.0 | 17.0 | 0.00 | 0.00 | 0.00 | 50 | 1009.8 |
| 20260507174304 | 68 | 228 | 13.0 | 16.0 | 0.00 | 0.00 | 0.00 | 50 | 1009.8 |
| 20260507173804 | 68 | 220 | 12.0 | 17.0 | 0.00 | 0.00 | 0.00 | 49 | 1009.6 |
| 20260507173303 | 68 | 245 | 13.0 | 17.0 | 0.00 | 0.00 | 0.00 | 48 | 1009.6 |
| 20260507172804 | 68 | 219 | 12.0 | 20.0 | 0.00 | 0.00 | 0.00 | 49 | 1009.5 |
| 20260507172307 | 68 | 234 | 10.0 | 16.0 | 0.00 | 0.00 | 0.00 | 48 | 1009.5 |
| 20260507171304 | 69 | 236 | 14.0 | 21.0 | 0.00 | 0.00 | 0.00 | 47 | 1009.6 |
| 20260507165804 | 69 | 215 | 14.0 | 20.0 | 0.00 | 0.00 | 0.00 | 46 | 1009.5 |
| 20260507165306 | 70 | 242 | 11.0 | 17.0 | 0.00 | 0.00 | 0.00 | 45 | 1009.3 |
| 20260507164804 | 69 | 244 | 13.0 | 18.0 | 0.00 | 0.00 | 0.00 | 45 | 1009.3 |
| 20260507164304 | 70 | 231 | 12.0 | 17.0 | 0.00 | 0.00 | 0.00 | 45 | 1009.3 |
| 20260507163304 | 70 | 256 | 11.0 | 21.0 | 0.00 | 0.00 | 0.00 | 43 | 1009.2 |
| 20260507162804 | 70 | 218 | 9.0 | 17.0 | 0.00 | 0.00 | 0.00 | 43 | 1009.0 |
| 20260507162307 | 70 | 225 | 13.0 | 17.0 | 0.00 | 0.00 | 0.00 | 43 | 1009.0 |
| 20260507161305 | 70 | 208 | 10.0 | 18.0 | 0.00 | 0.00 | 0.00 | 43 | 1009.0 |
| 20260507160804 | 71 | 202 | 12.0 | 16.0 | 0.00 | 0.00 | 0.00 | 42 | 1009.1 |
| 20260507160304 | 71 | 245 | 12.0 | 16.0 | 0.00 | 0.00 | 0.00 | 41 | 1009.1 |
| 20260507155804 | 71 | 240 | 10.0 | 16.0 | 0.00 | 0.00 | 0.00 | 42 | 1009.2 |
| 20260507155306 | 71 | 232 | 14.0 | 21.0 | 0.00 | 0.00 | 0.00 | 44 | 1009.1 |
| 20260507154804 | 71 | 215 | 13.0 | 17.0 | 0.00 | 0.00 | 0.00 | 43 | 1009.1 |
| 20260507154305 | 71 | 236 | 16.0 | 23.0 | 0.00 | 0.00 | 0.00 | 42 | 1009.1 |
| 20260507153304 | 71 | 216 | 13.0 | 18.0 | 0.00 | 0.00 | 0.00 | 39 | 1009.1 |
| 20260507152804 | 71 | 218 | 11.0 | 16.0 | 0.00 | 0.00 | 0.00 | 40 | 1009.1 |
| 20260507151804 | 71 | 226 | 9.0 | 16.0 | 0.00 | 0.00 | 0.00 | 38 | 1009.2 |
| 20260507151304 | 71 | 235 | 11.0 | 15.0 | 0.00 | 0.00 | 0.00 | 40 | 1009.2 |
| 20260507150804 | 71 | 225 | 12.0 | 17.0 | 0.00 | 0.00 | 0.00 | 41 | 1009.3 |
| 20260507150304 | 71 | 263 | 5.0 | 16.0 | 0.00 | 0.00 | 0.00 | 39 | 1009.3 |
| 20260507145804 | 71 | 259 | 13.0 | 16.0 | 0.00 | 0.00 | 0.00 | 41 | 1009.4 |
| 20260507145306 | 71 | 215 | 12.0 | 15.0 | 0.00 | 0.00 | 0.00 | 39 | 1009.3 |
| 20260507144804 | 70 | 224 | 12.0 | 18.0 | 0.00 | 0.00 | 0.00 | 39 | 1009.4 |
| 20260507143804 | 71 | 231 | 14.0 | 20.0 | 0.00 | 0.00 | 0.00 | 40 | 1009.6 |
| 20260507143304 | 71 | 258 | 9.0 | 14.0 | 0.00 | 0.00 | 0.00 | 43 | 1009.4 |